Monroe, MI

9:37 AM EDT on May 29, 2017 (GMT -0400)
Custer

Weather History for KTTF - December, 2013

Change the Weather History Date:

Friday, December 6, 2013

  Actual Average Record
Temperature  
Mean Temperature 26 °F -  
Max Temperature 32 °F 39 °F 68 °F (1998)
Min Temperature 21 °F 25 °F 5 °F (1964)
Degree Days  
Heating Degree Days 38    
Moisture  
Dew Point 18 °F    
Average Humidity 65    
Maximum Humidity 80    
Minimum Humidity 59    
Precipitation  
Precipitation 0.00 in - - ()
Sea Level Pressure  
Sea Level Pressure 30.23 in    
Wind  
Wind Speed 8 mph (NW)    
Max Wind Speed 12 mph    
Max Gust Speed -    
Visibility 10 miles    
Events      
Averages and records for this station are not official NWS values.
T = Trace of Precipitation, MM = Missing Value Source: NWS Daily Summary

Daily Weather History Graph

Daily Weather History Graph

Search for Another Location

Airport or City:

Trip Planner

Search our weather history database for the weather conditions in past years. The results will help you decide how hot, cold, wet, or windy it might be!

Date:

Astronomy

Dec. 06, 2013 Rise Set
Actual Time 7:47 AM EST 5:02 PM EST
Civil Twilight 7:15 AM EST 5:33 PM EST
Nautical Twilight 6:40 AM EST 6:08 PM EST
Astronomical Twilight 6:07 AM EST 6:42 PM EST
Moon 10:49 AM EST (12/6) 9:35 PM EST (12/6)
Length of Visible Light 10h 17m
Length of Day
9h 15m
Waxing Crescent, 19% of the Moon is Illuminated
Dec 6
Waxing Crescent
Dec 9
First Quarter
Dec 17
Full
Dec 25
Last Quarter
Jan 1
New

Hourly Weather History & Observations

Time (EST) Temp. Windchill Dew Point Humidity Pressure Visibility Wind Dir Wind Speed Gust Speed Precip Events Conditions
12:15 AM 32.0 °F 23.0 °F 23.0 °F 69% 30.14 in 10.0 mi WNW 11.5 mph - N/A   Mostly Cloudy
12:35 AM 32.0 °F 23.0 °F 23.0 °F 69% 30.14 in 10.0 mi WNW 11.5 mph - N/A   Mostly Cloudy
12:56 AM 32.0 °F 24.2 °F 23.0 °F 69% 30.12 in 10.0 mi WNW 9.2 mph - N/A   Overcast
1:16 AM 30.2 °F 21.9 °F 23.0 °F 75% 30.12 in 10.0 mi WNW 9.2 mph - N/A   Scattered Clouds
1:36 AM 30.2 °F 21.3 °F 21.2 °F 69% 30.13 in 10.0 mi WNW 10.4 mph - N/A   Mostly Cloudy
1:56 AM 30.2 °F 22.6 °F 21.2 °F 69% 30.13 in 10.0 mi WNW 8.1 mph - N/A   Mostly Cloudy
2:16 AM 30.2 °F 21.3 °F 21.2 °F 69% 30.11 in 10.0 mi NW 10.4 mph - N/A   Scattered Clouds
2:36 AM 30.2 °F 22.6 °F 21.2 °F 69% 30.12 in 10.0 mi NW 8.1 mph - N/A   Clear
2:56 AM 30.2 °F 23.4 °F 21.2 °F 69% 30.13 in 10.0 mi WNW 6.9 mph - N/A   Scattered Clouds
3:16 AM 30.2 °F 23.4 °F 21.2 °F 69% 30.15 in 10.0 mi WNW 6.9 mph - N/A   Mostly Cloudy
3:37 AM 30.2 °F 24.3 °F 21.2 °F 69% 30.14 in 10.0 mi WNW 5.8 mph - N/A   Overcast
3:52 AM 30.2 °F 25.4 °F 21.2 °F 69% 30.14 in 10.0 mi WNW 4.6 mph - N/A   Mostly Cloudy
4:12 AM 30.2 °F 24.3 °F 21.2 °F 69% 30.14 in 10.0 mi WNW 5.8 mph - N/A   Scattered Clouds
4:32 AM 30.2 °F 25.4 °F 23.0 °F 75% 30.15 in 10.0 mi WNW 4.6 mph - N/A   Mostly Cloudy
4:52 AM 30.2 °F 23.4 °F 21.2 °F 69% 30.17 in 10.0 mi WNW 6.9 mph - N/A   Overcast
5:12 AM 30.2 °F 23.4 °F 21.2 °F 69% 30.17 in 10.0 mi NW 6.9 mph - N/A   Overcast
5:32 AM 30.2 °F 24.3 °F 21.2 °F 69% 30.17 in 10.0 mi NW 5.8 mph - N/A   Overcast
5:52 AM 30.2 °F 26.7 °F 21.2 °F 69% 30.17 in 10.0 mi WNW 3.5 mph - N/A   Overcast
6:12 AM 30.2 °F 24.3 °F 21.2 °F 69% 30.18 in 10.0 mi WNW 5.8 mph - N/A   Overcast
6:33 AM 30.2 °F 23.4 °F 19.4 °F 64% 30.18 in 10.0 mi NW 6.9 mph - N/A   Overcast
6:53 AM 30.2 °F 24.3 °F 19.4 °F 64% 30.18 in 10.0 mi NW 5.8 mph - N/A   Overcast
7:13 AM 30.2 °F 23.4 °F 21.2 °F 69% 30.19 in 10.0 mi NW 6.9 mph - N/A   Overcast
7:33 AM 30.2 °F 21.9 °F 21.2 °F 69% 30.20 in 10.0 mi WNW 9.2 mph - N/A   Overcast
7:53 AM 30.2 °F 22.6 °F 19.4 °F 64% 30.21 in 10.0 mi WNW 8.1 mph - N/A   Overcast
8:13 AM 30.2 °F 23.4 °F 21.2 °F 69% 30.22 in 10.0 mi WNW 6.9 mph - N/A   Overcast
8:33 AM 30.2 °F 22.6 °F 19.4 °F 64% 30.21 in 10.0 mi NNW 8.1 mph - N/A   Overcast
8:53 AM 28.4 °F 21.2 °F 19.4 °F 69% 30.22 in 10.0 mi NNW 6.9 mph - N/A   Overcast
9:13 AM 28.4 °F 19.7 °F 19.4 °F 69% 30.23 in 10.0 mi NNW 9.2 mph - N/A   Overcast
9:33 AM 28.4 °F 19.7 °F 19.4 °F 69% 30.22 in 10.0 mi WNW 9.2 mph - N/A   Overcast
9:53 AM 28.4 °F 19.7 °F 19.4 °F 69% 30.23 in 10.0 mi WNW 9.2 mph - N/A   Overcast
10:13 AM 28.4 °F 22.2 °F 19.4 °F 69% 30.24 in 10.0 mi NW 5.8 mph - N/A   Overcast
10:33 AM 28.4 °F 20.4 °F 19.4 °F 69% 30.25 in 10.0 mi NNW 8.1 mph - N/A   Overcast
10:54 AM 28.4 °F 20.4 °F 17.6 °F 64% 30.25 in 10.0 mi NNW 8.1 mph - N/A   Overcast
11:14 AM 28.4 °F 19.7 °F 17.6 °F 64% 30.26 in 10.0 mi NW 9.2 mph - N/A   Scattered Clouds
11:34 AM 28.4 °F 21.2 °F 17.6 °F 64% 30.26 in 10.0 mi WNW 6.9 mph - N/A   Scattered Clouds
11:54 AM 28.4 °F 20.4 °F 17.6 °F 64% 30.25 in 10.0 mi NW 8.1 mph - N/A   Mostly Cloudy
12:14 PM 28.4 °F 20.4 °F 17.6 °F 64% 30.24 in 10.0 mi NNW 8.1 mph - N/A   Overcast
12:34 PM 30.2 °F 22.6 °F 17.6 °F 60% 30.25 in 10.0 mi WNW 8.1 mph - N/A   Scattered Clouds
12:54 PM 28.4 °F 22.2 °F 17.6 °F 64% 30.24 in 10.0 mi WNW 5.8 mph - N/A   Clear
1:14 PM 30.2 °F 22.6 °F 17.6 °F 60% 30.23 in 10.0 mi NW 8.1 mph - N/A   Scattered Clouds
1:35 PM 28.4 °F 20.4 °F 17.6 °F 64% 30.23 in 10.0 mi NW 8.1 mph - N/A   Mostly Cloudy
1:55 PM 28.4 °F 19.7 °F 17.6 °F 64% 30.22 in 10.0 mi NNW 9.2 mph - N/A   Mostly Cloudy
2:15 PM 28.4 °F 21.2 °F 17.6 °F 64% 30.22 in 10.0 mi NW 6.9 mph - N/A   Overcast
2:35 PM 28.4 °F 20.4 °F 15.8 °F 59% 30.22 in 10.0 mi NNW 8.1 mph - N/A   Overcast
2:55 PM 28.4 °F 22.2 °F 17.6 °F 64% 30.22 in 10.0 mi NW 5.8 mph - N/A   Overcast
3:15 PM 28.4 °F 20.4 °F 17.6 °F 64% 30.23 in 10.0 mi WNW 8.1 mph - N/A   Overcast
3:35 PM 28.4 °F 19.7 °F 15.8 °F 59% 30.25 in 10.0 mi WNW 9.2 mph - N/A   Overcast
3:55 PM 28.4 °F 21.2 °F 15.8 °F 59% 30.25 in 10.0 mi WNW 6.9 mph - N/A   Overcast
4:15 PM 26.6 °F 19.1 °F 15.8 °F 64% 30.24 in 10.0 mi NW 6.9 mph - N/A   Overcast
4:35 PM 26.6 °F 19.1 °F 15.8 °F 64% 30.25 in 10.0 mi NW 6.9 mph - N/A   Overcast
4:55 PM 26.6 °F 18.2 °F 15.8 °F 64% 30.26 in 10.0 mi NW 8.1 mph - N/A   Overcast
5:16 PM 26.6 °F 18.2 °F 15.8 °F 64% 30.27 in 10.0 mi NW 8.1 mph - N/A   Overcast
5:36 PM 26.6 °F 18.2 °F 15.8 °F 64% 30.27 in 10.0 mi NNW 8.1 mph - N/A   Overcast
5:56 PM 26.6 °F 16.8 °F 15.8 °F 64% 30.25 in 10.0 mi NW 10.4 mph - N/A   Overcast
6:16 PM 26.6 °F 19.1 °F 15.8 °F 64% 30.27 in 10.0 mi NW 6.9 mph - N/A   Overcast
6:36 PM 26.6 °F 18.2 °F 14.0 °F 59% 30.28 in 10.0 mi NW 8.1 mph - N/A   Mostly Cloudy
6:56 PM 26.6 °F 16.8 °F 14.0 °F 59% 30.28 in 10.0 mi NW 10.4 mph - N/A   Overcast
7:16 PM 26.6 °F 19.1 °F 14.0 °F 59% 30.30 in 10.0 mi NW 6.9 mph - N/A   Overcast
7:36 PM 26.6 °F 18.2 °F 14.0 °F 59% 30.30 in 10.0 mi NW 8.1 mph - N/A   Overcast
7:56 PM 26.6 °F 18.2 °F 14.0 °F 59% 30.30 in 10.0 mi NW 8.1 mph - N/A   Overcast
8:12 PM 26.6 °F 19.1 °F 14.0 °F 59% 30.31 in 10.0 mi NW 6.9 mph - N/A   Overcast
8:32 PM 26.6 °F 19.1 °F 14.0 °F 59% 30.31 in 10.0 mi NW 6.9 mph - N/A   Overcast
8:52 PM 26.6 °F 18.2 °F 14.0 °F 59% 30.31 in 10.0 mi NW 8.1 mph - N/A   Overcast
9:12 PM 26.6 °F 18.2 °F 14.0 °F 59% 30.31 in 10.0 mi NW 8.1 mph - N/A   Mostly Cloudy
9:32 PM 26.6 °F 18.2 °F 14.0 °F 59% 30.31 in 10.0 mi NW 8.1 mph - N/A   Mostly Cloudy
9:52 PM 24.8 °F 15.3 °F 14.0 °F 64% 30.31 in 10.0 mi NW 9.2 mph - N/A   Mostly Cloudy
10:12 PM 24.8 °F 16.1 °F 14.0 °F 64% 30.32 in 10.0 mi NW 8.1 mph - N/A   Scattered Clouds
10:33 PM 24.8 °F 15.3 °F 14.0 °F 64% 30.34 in 10.0 mi WNW 9.2 mph - N/A   Clear
10:53 PM 23.0 °F 15.8 °F 14.0 °F 68% 30.36 in 10.0 mi West 5.8 mph - N/A   Clear
11:13 PM 21.2 °F 13.6 °F 15.8 °F 80% 30.37 in 10.0 mi WNW 5.8 mph - N/A   Scattered Clouds
11:33 PM 23.0 °F 13.9 °F 14.0 °F 68% 30.36 in 10.0 mi WNW 8.1 mph - N/A   Clear
11:53 PM 23.0 °F 13.9 °F 14.0 °F 68% 30.37 in 10.0 mi WNW 8.1 mph - N/A   Clear